Flag for U.S.A. Weather past 2 weeks in Escondido, California, U.S.A.

Now
56 °F

Sunny.


Feels Like: 54 °F
Forecast: 51 / 74 °F
Wind: 7 mph from West

Location: Ramona Airport

Current Time: Apr 1, 2015 at 8:27:34 PM

Latest Report: Apr 1, 2015 at 7:53 PM


Visibility: 8 mi

Pressure: 29.93 "Hg

Humidity: 87%

Dew point: 52 °F

Location of EscondidoLocation

Historic Weather in Escondido — Graph

°F

Escondido temperature yesterday

Maximum temperature yesterday: 78 °F (at 1:53 PM)
Minimum temperature yesterday: 40 °F (at 7:01 AM)
Average temperature yesterday: 57 °F

Past Weeks' High & Low Weather Summary

 TemperatureHumidityPressure
High89 °F (Mar 26, 1:53 PM)100% (Mar 21, 11:53 PM)30.18 "Hg (Mar 21, 11:53 PM)
Low37 °F (Mar 21, 6:53 AM)7% (Mar 26, 2:53 PM)29.88 "Hg (Apr 1, 3:53 PM)
Average60 °F62%30.03 "Hg
* Reported Mar 17 6:53 PM — Apr 1 6:53 PM, Escondido, Weather by CustomWeather, © 2015

Note: Actual official high and low records may vary slightly from our data, if they occured in-between our weather recording intervals... More about our weather records

Advertising

Escondido weather history for previous 24 hours

 ConditionsComfort  
Time TempWeatherWind HumidityBarometerVisibility
6:53 PM
Wed, Apr 1
61 °FSunny.8 mph72%29.91 "Hg10 mi
5:53 PM66 °FSunny.12 mph59%29.89 "Hg10 mi
4:53 PM70 °FSunny.10 mph51%29.89 "Hg10 mi
3:53 PM72 °FSunny.10 mph48%29.88 "Hg10 mi
2:53 PM72 °FSunny.12 mph46%29.91 "Hg10 mi
1:53 PM72 °FSunny.6 mph35%29.93 "Hg10 mi
12:53 PM71 °FSunny.7 mph38%29.94 "Hg10 mi
11:53 AM67 °FSunny.3 mph45%29.98 "Hg10 mi
10:53 AM65 °FSunny.3 mph56%30.00 "Hg10 mi
9:53 AM61 °FSunny.9 mph65%30.01 "Hg10 mi
8:53 AM57 °FSunny.6 mph69%29.98 "Hg9 mi
7:53 AM53 °FScattered clouds.7 mph80%29.96 "Hg8 mi
6:53 AM53 °FOvercast.3 mph83%29.96 "Hg7 mi
6:01 AM53 °FLow clouds.6 mph86%29.98 "Hg8 mi
4:53 AM53 °FLow clouds.No wind89%29.95 "Hg7 mi
3:53 AM53 °FFog.No wind93%29.94 "Hg5 mi
3:01 AM51 °FFog.3 mph92%29.99 "Hg2 mi
1:53 AM54 °FFog.3 mph93%29.96 "Hg6 mi
12:53 AM56 °FFog.6 mph87%29.96 "Hg6 mi
11:53 PM
Tue, Mar 31
56 °FFog.No wind87%29.97 "Hg6 mi
10:53 PM56 °FFog.5 mph90%29.97 "Hg6 mi
9:56 PM52 °FPassing clouds.8 mph93%29.99 "Hg7 mi
8:53 PM54 °FClear.No wind80%29.95 "Hg10 mi
Weather by CustomWeather, © 2015

See weather overviewHow to use our weather pages